Theta_e
284 283 283 283 283 282 282 282 283 283 283 284 285 286 286 286 284 281 279 280 279 280 281 281 281 282 282 282 282 281 281 281 281 282 281 280 281 281 283 285 286 286 288 288 288 288 289 290 290 290 291 291 292 292 293 293 293 294 294 294 296 297 297 298 299 298 298 299 299 300 300 300 300 300
283 283 282 283 282 282 282 282 282 283 283 282 283 283 284 284 284 284 282 281 280 281 280 281 281 280 280 281 281 281 281 280 281 281 280 280 280 281 282 283 284 285 286 286 287 288 289 289 289 290 290 290 291 292 292 292 292 293 294 295 295 296 297 297 297 297 297 298 299 299 299 299 300 300
282 281 281 281 282 282 281 282 281 282 282 282 282 282 283 282 284 283 282 281 280 281 279 280 280 280 280 281 281 281 281 280 280 280 280 280 279 280 281 281 282 284 284 285 286 287 288 289 289 289 289 290 290 291 291 291 292 292 293 294 295 295 296 296 295 296 296 297 298 298 298 299 299 300
281 281 281 281 281 281 281 281 281 281 281 281 281 281 281 281 281 282 281 281 279 278 279 279 279 280 280 280 279 279 280 280 279 280 279 279 279 280 280 280 281 282 283 285 286 287 288 288 288 289 289 289 290 290 291 291 291 291 292 293 294 294 294 294 294 295 295 295 295 296 297 297 298 299
280 281 280 280 280 280 280 280 280 280 280 280 281 281 280 280 280 280 280 280 279 277 279 279 278 278 279 278 279 278 278 278 279 279 279 279 279 279 279 280 280 281 282 284 285 286 287 288 288 288 288 288 289 289 289 290 290 291 291 292 292 293 293 294 294 294 294 294 295 295 296 296 297 297
280 280 280 280 280 280 280 280 279 280 279 279 279 279 279 279 279 280 280 280 280 277 276 276 278 277 278 277 279 277 278 278 278 278 278 279 279 279 280 280 280 281 282 283 285 286 287 287 288 288 287 288 288 288 289 289 289 290 290 291 291 291 292 292 292 293 292 294 294 295 295 296 296 297
280 279 279 279 279 279 279 279 279 279 279 279 279 279 279 279 279 279 279 280 278 278 276 277 276 276 277 277 277 277 277 278 278 277 278 278 279 280 280 280 280 281 282 284 285 285 286 286 286 286 287 287 287 288 288 289 289 289 290 290 290 290 290 291 291 292 292 293 294 294 294 295 296 296
279 279 279 279 279 278 278 278 278 278 279 278 278 278 278 278 278 278 279 278 279 279 276 275 275 276 276 276 277 277 277 277 277 278 278 279 279 279 280 280 280 281 282 283 284 284 284 284 285 285 286 286 287 287 288 288 288 289 288 288 289 289 289 289 289 289 290 291 293 293 293 294 294 294
279 279 279 279 278 278 277 277 277 278 277 278 278 277 277 278 278 278 278 278 277 277 276 275 275 276 275 276 276 277 276 277 277 278 277 278 279 279 280 280 281 281 282 282 282 282 283 283 284 284 285 286 286 287 287 287 287 287 287 287 287 288 288 288 288 288 289 289 290 291 293 294 293 294
280 279 279 279 278 278 277 277 277 277 277 277 277 277 277 277 277 277 277 277 276 276 275 275 274 274 274 274 275 276 276 276 276 277 278 278 278 278 279 280 280 281 280 280 280 281 281 282 283 284 284 284 285 285 286 286 286 286 286 285 285 286 287 287 288 288 288 289 289 290 291 292 293 293
280 280 279 279 278 278 278 278 277 277 277 277 277 277 276 276 276 275 276 275 275 275 274 274 274 274 275 275 274 277 277 277 277 276 276 277 279 279 278 278 279 280 279 280 281 281 282 282 282 282 283 283 284 284 284 285 285 284 284 284 285 285 286 286 287 287 288 288 289 289 290 290 291 293
280 280 279 279 279 278 278 278 278 277 276 277 276 277 276 276 275 275 274 274 274 273 273 273 273 274 274 275 275 276 277 275 275 276 276 275 276 277 278 278 277 279 279 279 279 280 281 281 281 281 281 281 282 282 282 282 282 282 283 283 284 284 285 286 287 287 288 288 288 289 289 290 290 292
280 280 279 279 279 279 279 280 280 279 279 276 275 275 276 275 274 274 273 273 273 272 272 272 273 273 273 274 274 274 275 275 275 277 277 276 277 277 276 277 279 278 278 279 279 279 280 279 279 278 278 278 279 279 280 281 281 281 282 282 284 285 285 286 287 287 287 287 288 288 289 289 289 289
279 279 279 279 280 280 280 281 281 281 281 280 278 276 275 274 274 273 272 272 272 272 271 271 273 272 272 274 275 275 276 277 277 276 276 275 275 275 275 276 278 279 279 278 277 278 279 278 277 277 276 278 278 279 279 279 279 280 282 283 284 285 285 286 286 286 287 287 288 288 288 288 289 289
278 278 279 279 280 280 280 280 281 282 281 281 280 279 278 277 274 272 271 271 272 271 271 272 273 273 273 274 276 276 276 277 276 276 276 275 275 274 273 272 277 280 278 277 275 275 277 277 274 275 275 277 277 278 278 279 280 281 282 283 283 284 284 285 286 286 286 287 287 287 287 288 288 288
278 278 278 278 278 279 279 279 280 281 282 281 280 280 279 279 279 278 274 272 271 271 271 272 272 274 274 275 276 276 276 276 276 276 275 275 274 274 274 274 274 279 278 275 274 273 276 275 274 274 275 276 277 277 278 280 281 281 282 282 283 284 284 285 285 286 286 286 286 286 287 287 287 288
278 278 277 277 277 277 279 279 279 279 280 281 280 280 279 279 279 279 279 278 275 274 273 272 273 274 275 275 276 277 277 278 275 275 274 275 275 275 274 275 276 277 278 274 272 271 273 274 273 274 275 276 276 276 278 279 280 280 281 282 283 283 284 284 285 285 285 285 286 286 286 286 287 287
278 278 277 276 276 276 278 278 278 278 279 279 278 278 277 277 278 279 280 279 278 277 275 274 273 276 277 276 277 278 278 276 274 274 274 276 275 275 275 276 275 276 276 272 271 269 272 274 273 272 274 276 275 276 277 278 279 281 281 282 282 283 283 284 284 284 285 285 285 285 286 286 286 286
278 278 277 276 275 275 276 277 277 277 278 278 277 277 276 276 277 278 278 278 277 277 276 276 276 277 278 278 278 278 278 277 277 277 276 276 275 274 274 273 274 273 274 273 271 267 271 273 271 272 273 274 274 275 277 278 279 280 280 281 282 282 282 283 283 283 284 284 284 284 285 285 285 285
278 277 276 276 275 275 276 278 280 279 278 277 276 275 276 276 276 277 279 280 280 279 278 278 278 278 278 279 278 278 278 277 278 278 275 274 272 271 270 269 270 269 273 273 271 268 269 272 271 271 273 274 273 275 275 277 278 279 279 280 280 281 281 281 281 282 282 283 283 284 284 284 284 284
277 277 276 276 275 275 275 278 281 281 280 276 275 275 275 275 275 276 278 281 282 282 281 281 281 280 280 281 280 280 281 279 278 274 273 272 270 269 267 267 268 268 271 271 271 269 267 271 271 270 272 273 272 273 274 275 276 277 278 279 279 279 280 280 280 281 281 282 283 283 283 283 283 283
277 276 278 277 275 275 275 279 281 282 280 276 275 275 274 274 274 275 277 278 280 282 281 281 280 280 281 280 281 282 282 281 279 272 271 270 269 267 267 265 267 267 268 270 272 268 268 270 271 270 271 271 272 273 274 275 275 276 276 276 277 278 278 279 279 280 281 282 282 282 283 282 282 279
276 275 277 278 276 276 276 280 282 282 280 276 276 275 274 274 274 275 277 276 276 277 278 278 278 278 279 279 276 276 278 276 275 273 271 270 268 267 266 266 265 265 267 270 272 267 268 269 270 269 266 267 271 272 274 273 273 273 274 274 274 276 277 278 279 279 280 280 281 281 281 281 281 278
274 275 275 277 279 279 279 280 282 282 282 276 276 276 274 274 273 275 275 275 276 276 276 276 277 276 275 273 274 273 273 272 272 272 271 270 268 266 266 265 265 265 266 271 272 268 268 269 267 270 267 264 265 270 271 271 272 273 273 273 273 275 276 276 276 278 279 279 280 280 281 281 280 277
274 274 274 275 278 280 280 280 282 283 283 280 276 276 275 275 276 277 274 275 277 275 275 275 274 273 272 272 272 272 271 271 271 270 271 270 270 268 266 265 265 265 267 270 272 269 266 267 266 267 266 266 266 266 268 270 271 272 272 273 272 274 274 274 275 274 276 277 278 279 279 280 280 278
274 274 274 274 277 280 280 281 282 283 283 281 276 276 278 278 279 275 274 275 275 274 273 272 270 269 269 269 268 268 268 268 269 269 269 270 270 270 270 267 265 265 265 270 272 270 267 266 266 265 265 265 265 267 266 267 270 271 272 273 273 273 274 273 274 274 274 274 274 276 276 280 280 281
274 275 275 275 278 280 281 281 282 283 284 282 277 279 279 279 279 277 274 274 273 272 270 270 269 269 268 267 267 266 266 268 268 268 269 269 270 270 270 270 270 269 269 270 271 270 268 266 267 265 264 265 264 265 266 265 267 271 271 272 273 273 274 273 273 273 274 274 274 277 278 278 279 279
275 275 275 276 279 280 281 281 282 283 284 281 279 280 280 279 279 274 272 271 270 269 268 268 269 268 267 267 267 266 267 267 268 268 269 269 269 269 269 270 269 270 269 269 269 269 268 266 266 267 266 265 264 263 263 267 268 269 269 271 272 272 273 273 272 273 273 273 273 273 273 273 274 274
276 277 278 278 279 281 282 282 282 283 283 282 280 280 280 279 276 272 271 270 269 268 267 268 269 268 267 267 267 268 268 268 268 268 268 268 268 268 267 267 267 267 267 268 268 268 268 267 266 267 267 267 265 265 266 265 267 267 269 269 268 271 272 272 272 271 272 272 272 273 272 273 273 274
279 279 279 279 280 280 281 280 280 280 281 282 280 280 279 277 274 272 270 269 268 268 268 268 267 267 266 266 267 267 267 267 266 266 264 264 264 264 264 263 264 265 266 267 268 268 268 268 268 268 267 267 267 266 267 266 266 268 269 268 269 270 271 271 271 272 272 271 272 272 272 273 273 273
277 278 278 278 279 280 281 281 281 281 281 281 279 278 278 273 272 270 270 269 269 269 268 267 267 265 265 266 266 265 265 264 264 265 264 263 263 263 263 263 262 264 265 267 268 268 269 269 269 269 266 266 267 267 267 268 266 266 267 269 269 266 268 271 271 271 271 271 272 272 272 273 273 273
276 277 278 279 278 278 279 279 278 278 278 276 273 272 270 270 269 270 272 271 270 270 269 267 264 264 264 263 263 263 263 263 263 264 263 262 262 263 263 262 262 263 264 265 266 267 268 269 269 269 269 268 266 267 268 267 266 266 267 268 268 269 270 269 270 270 272 271 270 270 271 272 271 272
276 276 276 275 275 275 275 275 273 271 269 268 268 268 268 268 268 268 268 267 266 265 264 263 262 262 262 261 262 261 261 261 262 263 262 262 262 262 263 261 262 262 262 263 265 266 267 268 269 269 269 269 269 268 266 265 266 267 266 266 267 267 269 270 270 270 271 270 269 269 269 271 272 272
274 274 274 274 274 274 273 271 271 270 269 266 264 266 268 266 267 266 266 265 264 263 263 262 261 261 261 260 260 260 260 261 261 262 263 262 263 262 262 261 261 262 263 263 264 264 266 266 267 268 268 268 268 268 267 265 265 266 267 267 268 267 269 270 270 271 270 270 269 268 268 269 271 272
273 273 272 273 273 273 272 271 270 269 268 266 264 264 264 265 265 265 264 263 263 262 262 261 260 261 261 260 261 260 260 260 261 261 262 262 262 261 261 261 261 262 262 263 263 265 266 266 266 265 266 266 266 267 271 268 265 265 266 267 268 267 268 269 270 270 270 270 270 268 268 268 269 271
273 273 273 272 272 272 271 270 270 269 268 266 265 264 263 263 264 263 263 262 262 261 261 260 260 260 260 260 260 260 260 260 260 261 261 261 261 261 261 261 261 262 263 263 264 265 266 265 265 264 262 262 262 262 264 272 271 268 266 266 267 268 268 269 269 269 269 269 269 268 266 266 268 271
273 273 273 272 272 271 271 271 269 269 268 266 265 264 263 262 262 262 262 263 261 261 260 260 260 260 260 260 260 260 260 260 260 261 261 261 261 261 260 261 261 262 262 263 265 265 266 265 265 264 262 261 260 260 262 267 269 272 269 267 266 267 267 267 267 267 268 268 268 269 268 268 268 270
273 273 272 272 271 271 271 270 269 267 266 265 264 263 263 262 261 261 262 260 260 260 261 260 259 260 259 260 259 259 259 260 260 260 260 260 260 260 260 260 261 262 263 264 265 265 266 265 264 264 263 261 260 260 261 264 265 267 271 269 266 266 267 267 266 266 267 269 269 269 270 268 269 270
273 272 271 271 270 270 270 269 268 267 265 264 263 263 263 261 260 260 260 259 259 259 260 259 259 259 259 259 259 259 259 259 259 259 259 259 260 260 260 261 261 262 263 263 265 265 265 264 264 264 263 262 261 261 263 262 262 265 268 271 269 267 267 267 266 267 267 267 268 270 270 272 272 275
273 272 272 271 270 270 269 268 267 267 265 264 264 263 262 260 259 259 258 258 258 258 258 258 258 259 258 259 259 259 259 259 258 259 259 259 260 260 261 261 262 263 263 263 263 264 264 264 264 264 264 265 265 266 265 265 265 266 266 268 271 270 268 268 267 267 266 268 269 268 267 268 268 270
272 271 271 270 269 269 268 267 266 265 264 263 263 263 261 259 259 258 258 258 258 257 257 258 258 259 259 259 259 259 258 258 259 259 259 260 260 261 262 263 262 263 262 262 263 263 263 265 266 268 267 266 266 266 264 262 261 263 264 266 270 272 273 272 269 268 267 268 268 267 266 266 266 267
271 271 270 270 269 268 267 265 265 264 263 261 262 261 259 258 258 260 260 260 258 257 258 258 258 259 258 258 258 258 258 258 259 259 260 260 260 261 262 262 262 263 262 262 262 263 265 266 266 265 265 265 264 262 260 261 261 262 263 265 266 270 271 272 273 273 270 269 267 266 266 266 267 266
270 270 269 268 267 266 265 264 264 262 261 260 259 258 257 257 260 260 258 258 257 257 257 258 258 258 257 257 257 258 258 258 259 259 259 260 261 261 262 262 262 263 263 263 264 264 265 265 265 265 264 264 263 262 260 261 262 262 263 264 265 266 267 271 272 272 273 274 274 271 269 267 265 263
269 268 267 266 265 265 265 264 262 260 259 259 258 257 257 258 258 258 258 257 257 257 257 257 257 256 256 257 257 257 258 258 259 259 259 261 262 262 262 262 262 263 263 263 263 264 264 264 264 264 262 262 263 262 261 261 262 262 263 263 264 264 264 266 267 270 271 272 273 273 274 274 273 273
268 266 265 264 264 263 263 261 259 259 258 258 257 257 257 258 258 257 257 257 256 256 256 256 256 256 256 256 257 256 257 260 260 260 261 262 261 261 261 262 262 263 263 263 262 262 263 263 263 264 263 262 263 262 262 262 262 262 262 262 262 264 264 265 264 265 266 267 270 272 273 273 274 274
Wind_Speed
9 7 9 8 6 6 5 4 5 5 4 4 5 6 9 7 5 3 4 6 5 5 6 6 5 4 5 5 5 4 3 2 2 1 2 2 3 7 10 11 11 12 13 13 14 14 13 12 12 12 11 11 11 12 12 13 14 15 15 16 17 18 18 19 19 19 19 20 20 20 20 21 22 21
7 8 7 7 6 6 7 6 6 6 6 6 5 5 2 4 7 5 6 3 5 4 5 3 3 5 6 5 4 4 3 2 1 1 2 3 4 9 11 12 12 13 13 13 13 13 12 12 11 11 11 11 11 12 13 13 14 15 16 17 17 18 18 19 19 19 20 20 21 22 22 22 22 23
8 9 10 8 6 7 7 6 6 5 6 6 5 4 3 3 4 5 4 2 3 2 8 5 2 5 7 5 4 2 2 2 3 3 3 4 6 10 9 11 12 11 11 12 12 11 11 11 10 10 10 11 12 13 14 14 15 16 16 17 17 17 17 18 19 19 20 20 21 22 23 23 24 24
9 10 11 9 8 7 7 7 6 6 5 5 5 5 4 4 3 4 4 6 3 1 2 5 3 5 6 4 3 4 3 4 8 4 4 4 7 7 6 10 12 11 11 11 11 11 11 11 11 11 11 12 13 14 15 16 16 16 16 16 16 17 17 18 19 20 20 21 21 22 23 24 24 24
9 10 10 9 8 8 9 8 7 6 7 6 5 5 5 5 5 6 6 6 5 2 2 5 5 4 5 5 8 7 6 6 6 6 5 5 6 6 6 6 10 11 11 11 12 12 12 12 12 13 13 13 14 15 16 16 16 16 16 16 16 17 18 19 20 20 21 21 22 23 24 24 24 24
8 10 11 10 10 10 10 9 9 8 8 8 7 7 7 7 6 5 6 6 5 6 5 4 3 4 5 4 7 6 5 5 4 5 5 5 6 6 5 5 4 8 10 11 12 12 12 13 13 13 13 13 13 14 16 16 16 16 17 17 18 18 19 20 21 21 22 23 23 24 25 25 25 25
10 11 11 11 10 7 10 9 8 8 9 8 9 9 7 8 7 7 6 6 7 8 6 6 6 6 5 6 6 5 4 4 4 5 6 5 4 4 5 5 4 7 10 11 12 12 12 13 13 13 13 13 13 14 15 15 16 17 17 18 18 19 20 21 21 22 23 24 25 26 26 26 27 27
13 13 11 11 12 11 11 10 9 9 9 9 9 8 8 7 8 7 7 5 4 5 6 6 6 5 5 5 4 4 4 5 5 5 5 5 4 4 4 5 4 5 10 11 12 13 13 13 13 13 13 13 14 16 16 16 17 17 18 18 19 20 21 21 22 23 23 24 25 26 27 27 27 28
12 12 14 12 12 13 12 10 10 10 12 9 9 9 8 8 7 6 7 6 5 5 6 5 3 3 3 3 4 4 4 4 4 5 5 5 5 5 5 4 4 7 12 12 13 14 14 14 14 14 14 15 16 18 18 18 18 19 19 20 20 21 22 23 23 23 24 24 25 26 26 28 29 28
16 13 14 13 14 14 14 13 11 11 14 11 10 11 9 8 8 8 7 6 6 5 4 5 4 4 4 4 5 4 4 4 5 6 6 6 5 6 6 5 3 3 4 5 6 8 10 12 14 13 13 15 18 18 19 19 18 18 19 19 20 21 21 22 22 23 23 24 24 26 27 27 28 29
15 11 12 13 15 16 14 13 15 13 13 11 13 12 12 10 10 9 8 8 8 7 6 5 5 5 5 5 5 4 5 5 5 5 5 5 4 4 5 7 6 5 6 8 12 12 12 12 11 11 14 17 19 19 18 18 18 18 18 20 20 21 21 21 21 22 23 24 25 25 26 28 28 28
16 11 13 13 14 14 14 14 13 15 14 12 12 11 10 11 11 10 9 9 8 8 7 7 6 6 5 5 6 4 5 6 7 6 5 5 4 3 4 6 8 8 7 7 6 8 10 10 11 12 15 19 19 19 17 17 17 19 19 19 20 20 20 21 22 23 23 24 25 25 26 28 28 29
10 10 11 11 12 18 18 18 14 16 15 13 12 11 12 12 11 8 7 8 7 7 6 6 5 6 6 7 7 8 8 9 6 4 6 5 4 4 5 6 7 8 8 7 7 7 6 6 8 8 9 10 13 13 15 14 17 18 18 18 19 19 20 21 22 23 24 24 25 26 27 28 29 29
12 11 10 13 14 18 20 21 22 24 24 20 14 14 14 12 11 11 9 8 8 8 9 8 8 7 8 9 10 9 8 6 6 6 6 5 4 3 5 7 8 7 7 7 7 7 6 6 8 8 10 9 8 8 8 9 11 14 18 19 19 20 20 21 22 23 24 25 26 28 28 28 30 31
12 11 11 9 13 16 17 18 23 25 26 25 20 19 20 18 17 16 11 8 10 10 9 8 7 8 8 9 9 9 8 8 8 7 5 4 4 4 4 6 4 6 5 6 7 8 7 6 7 8 9 9 8 8 9 15 17 19 19 20 20 20 20 21 22 23 23 25 26 27 28 29 30 30
10 12 11 10 8 10 13 12 16 20 23 23 21 22 22 22 19 18 18 15 10 9 9 9 10 8 8 8 9 9 9 9 8 7 5 5 5 5 7 7 7 4 2 5 7 10 6 6 8 9 9 8 7 8 12 17 18 19 20 20 20 20 20 21 22 23 25 26 27 28 29 29 30 30
11 10 10 10 9 8 17 13 12 13 16 20 23 22 23 23 23 20 17 13 11 12 9 9 9 10 9 9 9 10 9 8 7 6 6 7 7 7 7 8 9 8 5 6 7 8 7 6 8 8 8 7 7 8 13 18 18 19 19 19 19 20 21 22 23 24 25 26 27 28 29 30 31 31
11 12 11 11 10 10 13 12 13 12 11 13 15 15 14 13 18 20 20 18 14 12 10 10 10 9 9 8 8 9 10 9 7 6 7 7 8 8 9 8 9 10 5 6 8 7 7 5 5 9 10 7 8 9 13 18 18 18 18 19 20 19 19 21 22 24 25 26 27 28 29 30 31 32
10 10 9 10 10 10 12 12 15 13 13 15 14 14 14 12 12 14 15 14 12 11 9 10 8 8 9 8 7 9 9 8 7 7 8 6 4 2 3 6 7 7 6 6 4 5 2 5 8 10 9 7 8 9 13 17 17 18 17 17 17 17 19 20 21 23 26 27 28 29 29 31 32 32
8 8 10 10 10 11 10 17 25 19 13 16 17 17 14 12 11 11 13 16 14 11 10 10 9 8 8 10 9 9 7 7 7 6 4 4 3 2 3 6 4 5 4 5 5 7 7 6 8 10 8 9 9 8 9 13 15 15 14 14 14 16 19 21 22 24 26 27 27 28 29 30 32 33
9 8 10 11 10 12 12 20 25 26 21 15 17 16 15 12 11 9 12 18 20 18 17 15 15 15 16 16 16 16 15 10 6 4 3 6 2 1 4 5 4 6 3 3 5 5 7 6 7 11 8 9 10 9 8 7 8 11 10 12 16 18 20 21 22 23 25 27 27 28 30 31 31 35
7 9 17 16 12 12 13 24 27 28 22 15 16 15 15 15 12 10 10 9 12 20 18 17 16 16 15 16 18 18 15 13 7 4 6 2 3 4 4 4 3 5 5 4 2 2 5 6 8 11 9 9 8 7 6 5 5 6 9 14 16 18 19 20 21 23 25 26 27 28 29 29 30 23
4 7 13 21 16 14 16 27 27 29 23 16 16 17 16 15 14 13 13 12 11 12 12 12 13 11 14 9 4 6 9 6 5 4 3 2 3 5 5 4 2 4 3 2 3 2 4 5 8 7 10 3 3 6 4 1 5 9 9 7 10 14 17 21 21 22 24 25 26 27 28 28 26 18
8 7 7 15 22 22 23 26 28 28 28 17 15 14 15 16 14 10 13 12 11 10 9 9 9 8 6 6 5 5 5 4 3 3 3 4 5 5 5 4 4 4 3 3 2 4 6 6 6 4 3 7 7 3 5 9 8 7 8 9 10 11 15 18 17 20 23 24 26 28 28 29 27 17
9 8 9 8 19 24 24 26 27 28 29 21 15 15 14 14 13 15 12 14 17 9 9 8 7 7 5 4 4 4 3 3 2 2 4 6 7 7 6 5 6 7 7 6 7 5 5 3 8 5 5 5 9 12 9 8 10 10 8 8 11 10 9 11 12 14 16 22 25 27 26 26 27 22
6 8 9 7 16 25 25 26 28 30 29 28 14 11 13 14 19 14 11 11 11 9 9 9 8 7 6 4 3 3 2 2 3 4 5 7 8 7 7 7 7 7 6 4 7 6 8 8 5 6 5 6 12 9 14 13 10 9 10 10 9 11 11 12 13 14 13 14 16 16 20 30 32 32
10 7 10 11 22 25 26 28 30 29 31 26 14 21 19 19 21 16 10 10 10 10 9 9 9 8 7 5 4 3 3 4 4 6 6 7 7 7 7 7 7 8 7 6 6 7 8 8 5 6 9 8 12 14 12 12 13 14 14 11 9 11 11 11 13 14 13 14 16 27 27 27 28 29
8 9 9 11 22 26 28 29 29 29 28 19 24 24 24 23 22 11 10 9 9 9 9 9 9 8 6 4 4 4 3 4 5 6 7 6 7 6 6 6 7 7 7 7 7 8 8 9 9 7 9 9 10 11 14 13 11 12 16 17 15 12 11 13 13 12 12 14 16 16 17 16 15 18
10 13 18 22 25 27 27 29 28 26 28 26 24 27 27 25 12 12 11 10 10 9 10 11 9 8 6 5 4 3 4 5 6 6 5 4 3 3 4 5 6 7 6 7 8 8 8 9 10 8 8 8 9 11 11 15 15 16 14 17 17 14 13 14 17 16 14 13 13 14 18 22 20 16
19 21 23 26 26 27 24 19 16 14 15 22 26 27 26 13 11 12 10 10 10 10 10 9 10 7 5 4 4 4 4 5 5 4 3 3 4 3 3 4 5 6 7 7 8 8 9 9 10 9 8 8 8 10 11 14 16 16 15 15 15 18 16 12 14 15 15 15 16 16 16 16 21 20
13 17 18 16 19 16 24 23 17 14 14 17 18 17 14 9 11 11 11 12 12 10 9 8 6 5 5 5 5 5 5 4 4 4 4 3 3 2 3 4 6 5 4 6 7 8 8 9 9 9 10 10 9 9 11 12 16 19 18 14 13 14 15 15 18 17 16 17 17 17 21 18 15 19
12 13 16 19 15 15 15 15 12 11 10 8 6 7 9 10 9 11 12 9 6 7 7 6 6 6 6 6 6 5 4 4 4 4 3 3 3 2 4 4 5 4 5 3 5 7 9 9 9 9 10 10 11 11 10 11 16 17 18 17 16 17 14 14 17 18 16 17 21 21 16 20 20 14
10 11 12 12 12 11 12 11 10 9 10 8 9 10 10 9 10 9 10 11 9 8 8 8 7 7 5 4 3 4 4 4 3 2 2 3 3 3 3 5 6 6 7 6 4 4 5 7 9 11 10 10 13 13 13 15 16 14 14 15 15 17 16 14 15 17 17 20 20 18 23 18 18 17
12 13 13 13 14 14 13 10 10 11 11 12 12 10 10 10 10 10 9 8 8 8 7 7 6 6 6 5 5 5 4 2 2 2 2 2 2 3 4 6 7 6 6 7 7 6 5 6 7 8 8 10 12 12 11 13 17 15 11 11 13 15 16 15 16 17 18 16 20 23 27 23 16 19
15 14 14 14 13 14 13 13 12 12 12 11 13 10 9 9 10 8 7 6 7 7 7 6 5 5 5 5 5 5 3 2 1 1 2 3 4 5 5 6 7 6 7 7 7 5 5 6 7 11 11 10 10 11 17 16 12 16 13 13 12 14 16 14 15 16 20 20 19 20 20 25 25 14
15 15 14 14 14 13 14 13 12 12 13 11 11 11 10 9 8 9 9 7 7 5 6 6 6 6 5 5 4 4 3 2 2 2 3 3 4 5 5 6 7 7 7 7 7 6 6 6 6 9 12 13 13 14 6 19 18 11 12 15 15 13 13 15 17 17 15 20 17 20 23 25 22 19
16 15 14 14 13 13 14 13 13 12 12 12 11 10 11 10 9 8 9 9 6 5 5 6 6 6 6 6 5 5 4 4 2 3 3 4 4 5 5 6 7 6 7 6 6 7 6 6 6 7 10 11 14 14 16 3 10 12 12 14 17 16 15 16 21 22 22 16 21 19 18 19 27 27
15 14 13 12 12 12 12 12 12 12 12 12 12 11 9 10 9 9 9 7 6 7 7 6 6 6 6 6 6 5 4 4 3 3 4 4 4 5 5 6 7 6 7 7 6 6 5 7 7 6 7 10 13 15 17 15 8 8 13 12 15 18 20 20 20 22 22 19 16 21 22 25 23 20
13 13 13 12 12 11 12 11 12 12 12 13 12 13 12 12 10 10 9 7 7 7 7 7 6 7 8 7 7 6 6 5 5 4 4 4 5 5 5 6 7 7 7 8 6 6 5 6 6 6 6 9 12 14 13 19 23 17 12 19 16 18 17 19 20 22 22 17 23 20 23 18 28 41
12 12 12 12 12 12 11 11 11 11 12 13 13 11 14 14 12 9 9 8 7 7 6 8 8 7 6 7 7 6 5 5 5 5 5 4 5 5 6 6 6 7 7 8 8 7 7 6 6 6 7 10 11 12 14 16 21 22 19 19 20 17 15 13 19 19 23 22 20 21 22 27 21 24
11 11 11 11 12 12 12 10 10 10 10 11 12 11 14 12 13 11 9 9 8 8 8 7 7 7 7 7 6 6 5 5 4 4 5 4 5 5 7 7 7 7 8 10 9 9 8 5 8 15 14 11 12 11 12 16 17 16 15 15 15 19 23 24 19 20 20 24 20 22 24 23 25 21
12 12 11 10 12 11 11 11 11 11 13 15 15 15 15 11 14 14 12 12 10 9 8 8 8 8 7 6 6 6 5 5 4 4 4 4 4 5 7 6 7 7 8 11 10 11 8 6 7 7 7 7 8 10 15 15 18 17 18 17 17 20 23 22 26 26 23 20 22 21 23 22 21 21
11 11 10 9 9 10 10 10 12 15 15 16 15 11 10 10 10 11 9 9 8 8 8 9 7 7 7 6 7 6 5 4 4 4 4 5 5 5 5 6 7 8 9 11 12 9 8 7 5 6 7 7 8 9 15 16 16 18 18 19 20 18 18 22 24 29 30 33 30 28 22 20 20 25
11 10 10 10 10 10 10 12 14 16 17 18 13 11 12 10 11 10 9 9 8 9 7 7 7 7 6 6 6 5 5 4 4 4 5 5 5 5 6 7 8 8 8 10 12 10 8 7 6 5 7 7 8 9 13 14 17 17 18 18 18 19 22 19 19 19 21 27 30 30 34 34 32 36
9 10 10 10 9 10 12 11 14 17 18 14 13 15 14 12 10 10 9 8 7 7 7 7 6 6 6 5 6 5 5 5 5 5 4 5 5 6 6 7 8 8 8 9 10 12 8 8 7 6 7 9 8 10 12 13 16 18 19 21 21 19 18 18 19 21 16 13 14 21 31 33 35 37
Wind_Direction
186 191 189 196 184 183 174 183 188 177 170 177 182 185 182 182 193 172 207 207 193 180 195 191 171 186 173 166 166 164 180 180 199 302 337 317 307 316 316 314 319 319 319 322 324 323 326 328 329 330 329 327 321 319 318 317 317 317 318 318 319 318 319 318 319 319 319 316 313 313 313 311 309 308
178 185 185 193 191 176 181 189 177 176 175 168 181 189 177 172 191 188 204 197 175 147 186 222 165 174 178 169 172 180 204 200 271 315 315 310 308 313 311 313 313 312 313 314 314 316 321 321 323 324 324 321 318 316 315 316 316 318 318 318 317 318 319 321 320 319 317 316 316 316 314 313 312 310
175 182 188 189 192 172 183 173 176 179 174 176 173 180 158 183 198 169 180 208 153 155 175 198 230 168 174 178 176 201 231 250 255 262 280 284 295 293 290 286 288 290 293 296 300 304 310 311 313 317 316 314 313 312 314 315 316 315 314 315 317 318 320 320 318 317 317 316 316 315 315 314 313 310
183 181 190 190 186 173 175 179 179 179 180 168 175 173 175 168 174 156 170 212 153 204 161 155 161 157 165 183 196 225 226 214 222 235 239 255 265 269 264 264 267 276 282 291 300 305 310 311 313 314 315 314 315 314 315 316 314 313 312 313 315 316 317 316 316 315 314 315 314 313 312 311 310 309
182 187 188 186 187 170 179 181 172 176 176 171 174 173 174 175 172 171 175 194 143 115 135 146 167 171 180 210 203 204 205 201 207 216 231 236 239 245 247 250 253 269 286 298 305 307 309 311 312 314 316 315 314 315 313 310 309 309 311 312 312 313 313 313 313 313 312 311 311 311 311 310 309 307
185 181 185 185 183 182 185 175 181 177 171 175 173 182 183 181 175 182 171 197 166 159 164 183 191 204 207 221 186 206 203 209 207 226 232 232 234 241 249 254 255 271 288 298 302 303 306 306 308 311 312 310 310 308 306 305 306 308 310 311 311 312 313 313 312 312 311 310 310 310 309 307 306 304
177 182 190 187 174 169 185 187 182 171 178 177 182 181 180 181 178 178 193 162 188 168 174 176 185 206 212 219 184 204 233 236 230 240 234 236 239 246 268 279 280 282 292 297 299 301 304 306 306 306 306 306 303 300 299 301 304 306 309 311 312 311 312 312 312 312 312 310 309 310 308 307 305 305
183 188 180 185 175 176 182 182 181 186 181 181 182 177 182 183 177 179 176 197 176 171 161 189 197 194 211 231 230 236 249 255 250 243 250 236 237 247 256 262 271 271 287 295 299 303 304 305 304 303 303 304 304 302 303 306 309 311 312 313 312 312 312 313 313 312 312 311 309 308 307 306 305 304
185 183 191 176 172 176 182 180 186 182 182 181 177 182 179 184 176 166 182 181 175 174 187 163 190 196 229 257 277 277 279 285 285 284 285 288 289 287 278 268 261 279 295 298 300 300 301 301 300 300 304 307 305 306 309 310 312 314 314 313 312 313 313 313 312 312 311 310 308 307 306 306 305 305
196 190 188 176 177 178 182 185 180 178 182 176 179 179 181 176 169 174 176 177 179 190 198 170 172 199 222 246 246 248 251 268 290 296 294 290 291 298 301 296 297 291 291 301 297 294 288 285 285 293 301 301 300 302 305 306 307 308 307 306 306 306 306 306 306 306 304 303 303 302 302 302 301 301
204 193 186 182 182 185 185 177 179 176 176 178 183 183 177 172 169 172 175 176 180 190 193 198 194 195 211 218 247 228 224 244 247 263 284 296 299 299 300 306 311 306 295 287 283 279 281 283 288 291 295 294 295 297 298 299 300 301 300 300 300 301 301 301 300 300 301 301 302 302 299 299 300 297
209 202 194 190 187 185 185 183 178 172 177 173 178 180 170 172 169 172 170 171 178 184 192 200 192 193 199 214 230 241 217 230 238 230 241 265 285 290 296 292 297 299 291 285 275 265 265 269 274 283 286 284 286 290 293 292 292 291 292 293 294 295 296 298 299 300 301 301 300 299 298 298 297 297
205 204 203 199 190 193 192 189 179 182 172 165 171 176 171 172 171 165 162 168 168 178 186 197 194 194 201 208 200 205 208 209 209 196 199 232 251 280 285 274 258 259 265 260 252 254 252 275 286 286 283 278 280 281 280 282 280 280 283 286 291 293 295 297 298 299 301 301 300 299 299 297 295 294
203 203 206 209 197 191 190 188 186 186 187 188 179 167 168 169 167 175 165 170 175 174 184 196 185 191 209 201 200 202 207 201 200 201 203 218 245 258 274 277 263 246 240 246 250 253 267 279 285 279 272 274 271 271 275 268 271 277 283 288 291 291 293 299 298 299 299 299 298 299 299 298 297 295
196 198 203 206 201 196 192 190 186 184 186 186 188 183 178 173 170 171 174 177 174 178 188 182 185 201 206 202 196 199 194 199 199 197 199 214 223 228 237 255 256 230 204 249 275 275 269 265 272 267 262 263 263 264 261 267 275 282 287 290 291 292 293 297 299 301 300 300 299 299 298 297 296 294
193 194 192 194 191 196 192 183 188 188 186 184 180 179 181 185 188 184 173 166 174 185 176 183 199 193 204 195 190 195 191 193 194 197 203 211 214 224 230 244 249 192 106 293 282 279 279 263 262 262 256 252 251 254 264 273 279 285 286 286 288 291 295 300 302 301 300 298 299 298 297 295 295 296
198 192 190 191 191 190 191 186 187 179 182 182 179 178 182 187 189 193 198 189 173 168 173 177 188 199 191 189 199 191 191 179 184 194 203 213 218 221 233 242 254 262 286 287 278 278 277 261 257 256 258 256 261 264 264 268 275 277 280 285 290 295 299 302 301 301 300 300 299 298 297 295 295 296
197 192 189 187 188 184 187 185 179 174 172 174 175 177 180 184 191 193 193 190 188 179 180 175 192 193 190 197 188 184 180 185 189 200 212 216 221 222 233 253 268 277 272 268 286 277 268 243 250 267 269 261 262 257 258 264 269 275 283 289 293 296 302 302 301 300 301 301 299 297 296 296 294 295
198 190 188 187 185 176 185 185 178 173 176 177 179 179 181 178 181 187 189 187 184 181 180 185 184 182 191 194 181 180 185 193 203 210 224 214 180 193 268 271 255 270 254 250 253 260 241 279 278 269 271 263 261 254 252 257 270 276 280 285 290 298 301 302 301 301 299 297 297 298 297 297 295 294
193 186 185 186 184 180 187 188 187 184 172 177 178 180 181 180 182 190 190 184 180 175 177 183 187 184 180 182 188 194 199 203 211 207 140 128 137 178 263 269 274 269 263 244 246 265 277 276 276 277 275 267 262 260 254 255 264 273 279 287 297 302 301 299 300 298 295 295 294 296 295 294 294 294
194 187 184 183 179 186 189 189 190 189 182 183 181 178 178 178 180 183 185 188 184 183 187 177 175 182 190 203 208 206 205 200 174 130 200 230 140 218 256 272 275 271 288 266 252 267 279 280 287 288 271 267 269 263 248 241 242 257 276 298 301 299 296 295 295 293 295 295 293 294 295 293 294 295
195 191 194 191 182 186 184 189 192 191 182 183 183 177 175 177 181 181 177 173 191 188 182 181 183 188 202 207 211 214 213 212 177 132 216 190 127 225 228 248 261 289 287 276 232 211 260 301 297 294 290 261 246 226 228 231 242 255 283 291 292 294 294 293 290 292 294 293 291 292 294 293 295 294
190 194 201 198 194 191 185 191 194 191 186 185 184 181 176 181 185 184 169 169 169 182 185 195 196 201 201 200 145 126 148 138 124 127 172 171 202 232 234 230 252 286 270 195 104 334 286 316 297 330 324 288 191 224 150 188 303 294 296 291 286 284 292 289 289 290 291 289 289 289 292 292 293 291
206 197 193 203 202 197 193 195 195 194 189 186 186 181 186 184 185 158 169 176 173 172 168 178 180 173 146 139 157 135 128 133 151 184 200 213 208 217 219 215 207 225 258 182 69 327 293 276 283 331 330 307 318 176 313 309 300 285 288 296 288 291 294 293 291 290 289 286 287 291 290 294 292 284
199 190 194 188 200 199 195 194 197 197 196 187 187 190 193 192 173 161 167 173 171 162 162 163 161 159 152 143 150 166 145 151 158 206 226 218 212 204 203 205 217 233 245 253 284 268 271 286 293 302 286 271 271 299 289 296 295 300 296 288 292 296 301 299 299 295 290 290 288 288 289 288 288 286
194 188 184 177 195 199 195 193 198 198 199 193 185 194 185 167 166 162 158 162 166 166 166 168 161 160 161 162 163 154 164 167 198 209 217 216 216 220 211 207 214 232 251 245 245 266 282 283 269 289 286 290 287 284 302 306 302 297 300 293 277 283 291 293 290 286 289 291 294 284 285 295 290 286
199 179 189 187 194 196 194 195 198 199 198 192 186 185 180 174 168 158 159 163 162 162 161 162 173 179 174 180 180 161 191 207 200 212 216 218 218 221 225 227 230 239 260 266 263 268 270 271 271 274 283 285 289 299 294 299 310 317 302 292 292 292 291 286 283 288 285 284 287 291 288 291 297 287
186 182 179 184 193 196 198 197 198 200 199 188 183 178 181 176 170 156 156 153 155 157 161 169 178 182 178 164 173 181 192 205 214 214 217 218 219 223 234 236 244 256 268 272 271 267 265 269 275 260 265 279 284 292 299 293 287 297 302 304 302 298 303 296 288 281 279 281 288 294 293 291 293 289
195 189 186 189 194 196 198 199 201 202 201 184 177 184 182 176 161 157 158 161 157 161 172 179 180 177 176 175 164 165 189 205 215 216 218 226 241 270 280 272 269 269 263 262 260 259 259 260 267 265 262 261 267 276 284 289 299 297 297 303 303 309 306 297 294 290 285 274 273 279 290 296 289 290
189 188 189 191 193 197 197 198 200 199 202 181 176 180 178 174 162 156 153 156 164 172 176 176 180 178 146 147 149 162 192 205 215 210 227 240 254 234 249 270 266 234 236 248 254 256 256 258 258 265 266 263 254 267 276 289 291 289 289 284 288 295 286 286 284 288 289 285 284 281 279 281 286 281
185 186 186 187 190 192 195 196 195 193 192 187 178 180 176 150 153 158 162 171 173 172 169 171 166 133 127 122 134 177 197 213 217 216 221 236 255 253 260 278 281 287 241 217 241 249 257 260 263 267 275 276 270 259 273 280 282 288 285 282 284 280 289 296 288 283 283 283 282 283 292 283 275 277
175 172 183 186 190 193 196 195 187 187 184 183 146 144 137 142 142 150 152 144 150 157 156 143 123 117 133 147 168 180 201 215 213 206 218 230 260 267 291 290 278 286 293 248 237 241 248 260 270 272 273 278 283 284 281 271 272 276 281 284 283 276 274 278 284 285 286 289 294 291 281 285 279 281
168 172 178 178 181 186 193 192 180 160 142 129 140 133 138 138 142 144 152 160 159 149 138 147 144 144 136 144 151 181 205 216 211 205 219 257 257 280 266 261 277 288 297 296 286 265 245 256 257 267 271 273 275 277 286 286 274 263 265 271 276 278 283 277 278 284 290 297 289 290 290 282 283 275
171 181 182 184 182 182 182 178 176 170 156 144 132 151 145 144 149 152 148 148 147 139 143 144 137 149 142 152 169 191 199 210 200 231 226 248 246 256 263 270 273 279 274 281 289 285 283 268 270 258 254 254 257 252 248 260 272 274 266 265 264 272 278 285 284 284 292 288 293 295 294 289 279 280
181 183 188 188 185 186 178 175 176 169 160 154 143 135 146 144 142 139 139 137 132 135 142 141 129 129 144 153 173 179 188 176 209 221 245 247 259 250 257 262 274 276 280 285 288 287 282 288 295 302 298 291 280 252 211 215 253 265 280 273 269 273 282 285 288 291 298 291 292 283 284 285 288 286
191 190 187 188 186 181 180 178 166 164 163 156 154 148 146 153 145 145 148 141 134 131 137 136 144 152 159 167 168 170 172 179 209 243 250 249 245 263 260 257 266 270 275 278 287 292 293 290 301 306 310 311 313 307 305 190 206 242 263 284 289 284 286 293 292 286 286 291 287 287 284 283 282 284
191 191 190 186 182 181 183 174 168 164 159 157 155 154 154 152 152 143 138 132 135 139 142 134 149 156 157 169 167 167 170 174 196 228 249 267 264 262 269 266 266 270 276 277 282 288 284 292 294 300 304 305 306 300 284 187 191 230 269 278 288 291 295 300 301 297 291 287 286 279 274 279 285 289
190 188 187 184 180 179 176 173 166 163 159 155 152 151 151 147 133 131 130 127 136 143 149 148 155 155 163 168 165 169 167 189 199 221 239 254 259 264 269 275 284 281 282 281 279 280 285 288 292 285 288 291 299 295 300 303 291 235 219 262 277 286 298 295 293 290 292 294 289 290 287 286 281 282
190 184 185 178 175 171 171 170 167 167 161 158 158 157 154 147 140 140 142 138 140 149 154 154 162 167 169 172 172 170 167 172 191 214 230 246 253 262 268 273 279 281 281 285 286 287 286 281 274 267 266 279 279 284 289 297 294 291 268 263 272 279 276 284 286 290 290 292 294 293 286 268 282 283
189 182 180 173 168 168 170 168 172 172 166 164 162 156 154 148 143 133 139 141 142 150 149 164 169 168 173 180 173 173 170 182 203 217 221 236 246 253 257 266 271 283 293 289 292 288 287 267 258 260 265 274 271 277 283 278 282 282 281 276 263 265 275 281 285 287 292 291 297 295 294 295 295 293
175 178 180 175 171 169 165 163 166 164 168 160 151 149 148 132 132 140 139 145 144 152 158 163 173 176 175 173 170 170 174 194 200 214 224 233 243 253 265 276 284 288 292 287 284 283 277 255 257 278 280 281 280 283 282 282 279 282 285 282 274 273 277 280 277 282 281 291 295 293 290 293 298 299
176 178 175 170 170 163 154 159 161 164 160 146 150 147 140 124 126 139 144 149 148 151 150 162 170 169 170 165 170 173 177 194 198 212 228 232 252 261 267 273 276 285 285 287 287 286 287 273 272 264 257 263 277 289 284 279 286 288 289 293 292 288 284 279 278 277 279 283 290 292 294 295 295 288
171 166 164 160 155 152 154 154 160 159 149 141 136 129 125 132 144 144 144 146 153 156 163 164 166 165 171 170 174 177 182 199 205 215 225 239 244 259 268 276 276 275 275 279 284 282 280 275 253 264 263 265 260 263 275 282 284 288 291 297 298 301 295 287 280 281 277 279 278 276 277 284 294 291
163 155 149 148 146 150 154 158 153 144 137 140 137 133 135 140 143 145 146 150 152 165 161 164 167 170 167 163 166 172 193 198 209 216 232 237 254 264 274 275 272 271 274 283 290 284 283 278 273 268 279 270 266 271 270 277 285 288 291 291 296 297 296 300 296 281 270 266 268 280 279 277 275 276
146 142 141 139 142 145 148 140 123 134 132 131 134 133 129 122 134 140 145 145 141 154 164 170 163 166 160 160 165 173 193 203 210 221 234 250 259 266 264 264 267 270 279 284 291 291 285 281 277 268 256 259 257 264 272 274 279 290 293 295 294 292 295 301 301 302 294 285 250 273 289 287 287 285